Location: Observatoire
(46.1952°N, 5.3391°E)
Time: 02:46:39
(UTC+01:00)

Altair - Pass Details

Date: 19 February 2026
Orbit: 1502 x 1682 km, 47.2° (Epoch: 13 March)

Event Time Altitude Azimuth Distance (km) Brightness Sun altitude
Rises 09:44:03 0° 287° (WNW) 4,689 9.5 18.8°
Reaches altitude 10° 09:47:04 10° 286° (WNW) 3,724 9.1 19.2°
Maximum altitude 09:56:28 75° 204° (SSW) 1,635 8.1 20.4°
Drops below altitude 10° 10:06:15 10° 121° (ESE) 3,859 11.4 21.6°
Sets 10:09:26 0° 120° (ESE) 4,865 11.4 22.0°
